Погода в Слободских Дубровках

Россия / Республика Мордовия     54°23′55″N   43°32′30″E
темп.,
°C
ветер,
м/с
пор.,
м/с
влажн.,
%
обл.,
%
осадки,
мм/ч
давл.,
гПа
погр.,
м
16 сентября, чт
чт1600:00+8зсз4785100 0.1 1012482
03:00+7зсз5887100 0.1 1012537
06:00+7зсз5986100 0.4 1013571
09:00+6зсз5892100 1.0 1014498
12:00+9ссз677492 0.3 1015812
15:00+10ссз5760100 0.4 10161152
18:00+9сз4757100 0.0 1017479
21:00+8сз3660100 0.0 1017393
17 сентября, пт
пт1700:00+8сз2558100 0.0 1018299
03:00+7сз2458100 0.0 1018295
06:00+7сз3564100 0.0 1018443
09:00+7сз4460100 0.0 1018942
12:00+9сз344998 0.0 10181346
15:00+9ссз4447100 0.0 10181320
18:00+9ссз3551100 0.0 1019477
21:00+7с376358 0.1 1020332
18 сентября, сб
сб1800:00+3с34755 0.0 102173
03:00+2ссз34744 0.0 102259
06:00+1ссз33814 0.0 102363
09:00+7с34685 0.0 1023529
12:00+11ссв444635 0.0 10231455
15:00+11ссв544747 0.0 10231428
18:00+7ссв335719 0.0 102448
21:00+7св346014 0.0 1025148
19 сентября, вс
вс1900:00+3всв34805 0.0 102560
03:00+2всв3578100 0.0 102695
06:00+1всв3674100 0.0 1026114
09:00+6в4554100 0.0 1026469
12:00+9в4442100 0.0 1025986
15:00+10вюв4540100 0.0 10241112
18:00+8в4846100 0.0 1023261
21:00+7в51150100 0.0 1023392
20 сентября, пн
пн2000:00+6вюв51064100 0.6 1022530
03:00+5в71492100 5.8 1020564
06:00+5в81594100 6.8 1019719
09:00+5в81593100 9.6 1019784
12:00+6в81493100 4.7 1019759
15:00+7в71394100 6.3 1018757
18:00+7вюв71292100 0.5 1019771
21:00+7вюв81389100 0.6 1019754